Home   Weather   Rockhampton   Past weeks

Flag for Australia Past Weather in Rockhampton, Queensland, Australia — Yesterday and Last 2 Weeks

Now
70 °F

Clear.


Feels Like: 70 °F
Forecast: 63 / 80 °F
Wind: 7 mph from Southeast

Location: Rockhampton Airport

Current Time: Apr 30, 2017 at 11:06:02 pm

Latest Report: Apr 30, 2017 at 10:30 pm


Visibility: N/A

Pressure: 30.07 "Hg

Humidity: 78%

Dew Point: 63 °F

Location of RockhamptonLocation

Past Weather in Rockhampton — Graph

°F

Rockhampton Temperature Yesterday

Maximum temperature yesterday: 81 °F (at 2:00 pm)
Minimum temperature yesterday: 52 °F (at 3:00 am)
Average temperature yesterday: 66 °F

High & Low Weather Summary for the Past Weeks

 TemperatureHumidityPressure
High86 °F (Apr 26, 2:00 pm)100% (Apr 25, 11:30 pm)30.18 "Hg (Apr 25, 11:30 pm)
Low52 °F (Apr 29, 3:00 am)17% (Apr 28, 4:00 pm)29.80 "Hg (Apr 26, 3:00 pm)
Average72 °F66%30.06 "Hg
* Reported Apr 15 10:00 pm — Apr 30 10:00 pm, Rockhampton, Weather by CustomWeather, © 2017

Note: Actual official high and low records may vary slightly from our data, if they occured in-between our weather recording intervals... More about our weather records

Advertising

Rockhampton Weather History for the Previous 24 Hours

Scroll right to see more
 ConditionsComfort  
Time TempWeatherWind HumidityBarometerVisibility
10:00 pm
Sun, Apr 30
70 °FClear.7 mph83%30.07 "HgN/A
9:30 pm70 °FClear.7 mph83%30.09 "HgN/A
9:00 pm70 °FClear.5 mph83%30.09 "HgN/A
8:30 pm70 °FClear.6 mph78%30.07 "HgN/A
8:00 pm72 °FClear.5 mph69%30.07 "HgN/A
7:30 pm70 °FClear.5 mph73%30.07 "HgN/A
7:00 pm72 °FClear.5 mph69%30.04 "HgN/A
6:30 pm73 °FClear.5 mph65%30.04 "HgN/A
6:00 pm73 °FClear.8 mph61%30.04 "HgN/A
5:30 pm75 °FSunny.6 mph57%30.04 "HgN/A
5:00 pm77 °FSunny.8 mph51%30.01 "HgN/A
4:30 pm79 °FSunny.8 mph48%30.01 "HgN/A
4:00 pm79 °FSunny.12 mph45%30.01 "HgN/A
3:30 pm81 °FSunny.10 mph39%30.01 "HgN/A
3:00 pm81 °FSunny.9 mph37%29.98 "HgN/A
2:30 pm81 °FSunny.9 mph39%30.01 "HgN/A
2:00 pm81 °FSunny.10 mph34%30.01 "HgN/A
1:30 pm81 °FSunny.12 mph37%30.01 "HgN/A
1:00 pm81 °FSunny.10 mph37%30.01 "HgN/A
12:30 pm81 °FSunny.10 mph37%30.04 "HgN/A
12:00 pm79 °FSunny.12 mph39%30.04 "HgN/A
11:30 am79 °FSunny.13 mph39%30.07 "HgN/A
11:00 am77 °FSunny.12 mph47%30.07 "HgN/A
10:00 am75 °FSunny.10 mph54%30.09 "HgN/A
9:30 am73 °FSunny.10 mph57%30.09 "HgN/A
9:00 am72 °FSunny.8 mph65%30.09 "HgN/A
8:30 am72 °FSunny.8 mph65%30.09 "HgN/A
8:00 am70 °FSunny.8 mph69%30.09 "HgN/A
7:30 am68 °FSunny.7 mph78%30.09 "HgN/A
7:00 am64 °FSunny.5 mph88%30.09 "HgN/A
6:30 am63 °FSunny.5 mph94%30.07 "HgN/A
5:30 am64 °FClear.7 mph94%30.04 "HgN/A
5:00 am64 °FClear.8 mph94%30.04 "HgN/A
4:30 am64 °FClear.8 mph94%30.04 "HgN/A
4:00 am64 °FClear.8 mph94%30.04 "HgN/A
3:30 am64 °FClear.6 mph94%30.04 "HgN/A
3:00 am63 °FClear.3 mph94%30.04 "HgN/A
2:30 am63 °FClear.3 mph94%30.04 "HgN/A
2:00 am63 °FClear.3 mph100%30.04 "HgN/A
1:00 am64 °FClear.2 mph94%30.04 "HgN/A
12:30 am64 °FClear.No wind94%30.04 "HgN/A
12:00 am64 °FClear.No wind94%30.04 "HgN/A
Weather by CustomWeather, © 2017

See weather overviewHow to use our weather pages